Find Starlink 30162

NORAD ID: 57446 Int'l Des: 2023-105 Owner: SPXS Country: US Constellation: starlink operational
LEOCIRCULAR

Live Position

Loading 3D Globe...

About Starlink 30162

Description loading...

Upcoming Passes

Passes for default location (London). Set your location on the main map for personalized predictions.

Altitude History

Loading altitude history...

Two-Line Element Set

1 57446U 23105S 26125.45577940 .00002905 00000-0 11510-3 0 9991
2 57446 43.0025 288.2067 0001573 254.5870 105.4808 15.27571161154396
Epoch: May 5, 2026 • Age: 10 hours

Current Status

Altitude 482.2 km
Velocity 7.63 km/s
Sub-Earth Point 11.79°N, 86.73°W
Launch Date Jul 24, 2023
Age 2.7 years
Type internet

Technical Details

Classification Payload
Mass 730.00 kg
Dry Mass 700.00 kg
Total Mass 730.00 kg
Length 0.30 m
Diameter 4.10 m
Span 29.00 m
Shape Box + pan
Manufacturer SPXS
Bus Type Starlink V2M
Phase Status In Orbit
Owner/State SPXS/US

Most Searched